Aérodrome :
LOGIN :

S'inscrire | Disclaimer

   EN    FR    IT 

 










Légende :    VFR   VFR Marginal   IFR   IFR Intensif   IFR Très Intensif
Visi : 
Plafond : 
>= 8 km
>= 3000ft
5 à 8 km
1000 à 3000 ft
1500m à 5 km
500 à 1000 ft
800 à 1500m
200 à 500 ft
< 800m
< 200 ft
Symboles :   Orages  Brouillard  Fortes neiges  Fortes précipitations  Vent > 20 kt
SIGMETs :   Divers  Orages  Givrage  Turbulence  Onde Orograph.  Cendres Volcan.






- Altitude de l'aérodrome : 1084 ft
- Code IATA : EPL


LFSG - Épinal-Mirecourt

DERNIER METAR :
  • 192200Z AUTO 24009KT 9999 RA ///CB 20/18 Q1011

METARs EXPIRÉS :
  • 192130Z AUTO 25010KT 9999 -RA ///TCU 22/18 Q1011
  • 192100Z AUTO 26013KT 9999 ///CB 24/19 Q1010
  • 192030Z AUTO 20004KT 9999 ///CB 25/18 Q1010
  • 192000Z AUTO 22002KT CAVOK 26/18 Q1010

TAF N/A



MET'MAP, la Météo Aéronautique d'un coup d'oeil ! - Copyright ORBIFLY Décembre 2007 - Disclaimer

ORBIFLY MET'MAP TEAM :

Programmation & Développement : Alexandra Zaïnal
Sur une idée originale de : Baudouin d'Aumeries
Assistance à la programmation : Marc-Olivier Méhu
Soutien technique & logistique : Manuel Goepfert

Contact : metmap@orbifly.com




SOURCES & CREDITS :

   NOAA